Flag for Cyprus Weather past 2 weeks in Limassol, Cyprus

Now
52 °F

Passing clouds.


Feels Like: 52 °F
Forecast: 45 / 68 °F
Wind: 2 mph from Northeast

Location: Akrotiri

Current Time: Jan 31, 2015 at 3:12:59 AM

Latest Report: Jan 31, 2015 at 1:50 AM


Visibility: N/A

Pressure: 30.01 "Hg

Humidity: 94%

Dew point: 50 °F

Location of LimassolLocation

Historic Weather in Limassol — Graph

°F

Limassol temperature yesterday

Maximum temperature yesterday: 59 °F (at 12:50 PM)
Minimum temperature yesterday: 48 °F (at 7:50 AM)
Average temperature yesterday: 54 °F

Past Weeks' High & Low Weather Summary

 TemperatureHumidityPressure
High68 °F (Jan 23, 12:50 PM)100% (Jan 29, 3:50 AM)30.33 "Hg (Jan 29, 3:50 AM)
Low43 °F (Jan 18, 6:50 AM)32% (Jan 28, 12:50 PM)29.86 "Hg (Jan 28, 3:50 AM)
Average56 °F74%30.08 "Hg
* Reported Jan 16 1:50 AM — Jan 31 1:50 AM, Limassol, Weather by CustomWeather, © 2014

Note: Actual official high and low records may vary slightly from our data, if they occured in-between our weather recording intervals... More about our weather records

Advertising

Limassol weather history for previous 24 hours

 ConditionsComfort  
Time TempWeatherWind HumidityBarometerVisibility
1:50 AM
Jan 31
52 °FPassing clouds.2 mph94%30.01 "HgN/A
12:50 AM52 °FPartly cloudy.3 mph88%30.01 "HgN/A
11:50 PM
Jan 30
50 °FPassing clouds.1 mph94%30.04 "HgN/A
10:50 PM50 °FPassing clouds.2 mph94%30.04 "HgN/A
9:50 PM54 °FPassing clouds.3 mph82%30.04 "HgN/A
8:50 PM54 °FPassing clouds.3 mph88%30.01 "HgN/A
7:50 PM54 °FPartly cloudy.3 mph88%30.01 "HgN/A
6:50 PM55 °FPassing clouds.3 mph88%29.98 "HgN/A
5:50 PM55 °FPassing clouds.3 mph82%29.95 "HgN/A
4:50 PM59 °FPartly sunny.6 mph72%29.95 "HgN/A
3:50 PM59 °FPassing clouds.6 mph68%29.95 "HgN/A
2:50 PM59 °FPartly sunny.6 mph68%29.95 "HgN/A
1:50 PM59 °FPassing clouds.7 mph63%29.92 "HgN/A
12:50 PM59 °FScattered clouds.6 mph68%29.95 "HgN/A
11:50 AM57 °FBroken clouds.5 mph67%29.95 "HgN/A
10:50 AM55 °FSprinkles. Broken clouds.5 mph72%29.95 "HgN/A
9:50 AM54 °FSprinkles. Scattered clouds.6 mph72%29.95 "HgN/A
8:50 AM48 °FBroken clouds.6 mph94%29.92 "HgN/A
7:50 AM48 °FThunderstorms. Mostly cloudy.17 mph87%29.95 "Hg2 mi
6:50 AM50 °FPartly sunny.5 mph94%29.86 "HgN/A
5:50 AM50 °FSprinkles. Partly cloudy.2 mph94%29.86 "HgN/A
4:50 AM50 °FPartly cloudy.3 mph94%29.86 "HgN/A
3:50 AM52 °FThunderstorms. Passing clouds.10 mph82%29.86 "Hg4 mi
Weather by CustomWeather, © 2014

See weather overviewHow to use our weather pages